Historyczne dane pomiarowe

Dodano dane terminowe – wersja testowa.

Dane z okresu 1951-2019

Wersja bazy: 1.34 [2019-03-16, lista zmian], aktualizacja planowana na 2019-04-15

Dane meteo z obszaru Polski uzyskane na podstawie danych udostępnionych przez Instytut Meteorologii i Gospodarki Wodnej – Państwowy Instytut Badawczy.

 

Wybierz Datę:    

       

TemperaturaWilgotnośćWiatrCiśnienieOpadyŚniegCzas trwania zjawisk
 Stacja t tx tn tng RH VA  wxwx mslp ppp RRR   cm mm wxwxwxwxwxwxwx
1956-11-09 -6.4 -3.7-11.8-15.5 80.8- 5.7 2.7---- 0.0-- 6---------
1956-11-08 -5.4 -2.5 -9.1-12.0 74.5- 2.3 4.3---- 0.0-- 6---------
1956-11-07 -4.5 -0.3 -5.8 -6.8 72.8- 3.3 6.3---- 0.0-- 9---------
1956-11-06 -0.2 1.2 -1.4 -2.7 89.5- 3.7 6.3---- 0.5-- 6---------
1956-11-05 0.3 3.9 -2.2 -4.9 90.0- 7.3 7.3---- 4.9-- 2---------
1956-11-04 -0.6 2.7 -2.7 -5.2 79.5- 4.0 4.7---- 0.0-- 2---------
1956-11-03 -0.1 2.2 -2.8 -4.9 79.0- 5.3 1.3---- 0.0-- 3---------
1956-11-02 -0.8 2.2 -4.4 -7.7 91.0- 1.0 2.7---- 0.0-- 3---------
1956-11-01 0.6 2.7 -2.2 -3.1 96.5- 8.0 5.0---- 6.3-- 5---------
1956-10-31 -5.0 -1.8-14.2-20.5 78.5- 1.7 4.3---- 2.2-- 3---------
1956-10-30 -6.8 -3.5 -9.2 -9.6 79.3- 4.3 6.7---- 0.0-- 3---------
1956-10-29 -3.1 3.7 -4.0 -2.2 93.3- 8.0 11.3---- 2.2-- 2---------
1956-10-28 4.5 7.0 3.5 5.4 96.3- 8.0 9.0---- 14.7------------
1956-10-27 6.7 7.2 5.9 5.5 98.8- 8.0 4.3---- 0.3------------
1956-10-26 7.5 10.3 6.7 4.5 91.3- 8.0 2.3---- 1.6------------
1956-10-25 9.9 12.0 8.6 6.6 90.3- 4.3 3.3---- 0.0------------
1956-10-24 9.9 11.7 7.8 7.2 89.0- 7.7 3.7---- 0.0------------
1956-10-23 9.1 11.0 8.7 8.7 89.3- 8.0 5.0---- 0.0------------
1956-10-22 10.9 12.4 10.4 9.6 74.8- 7.7 7.0---- 0.0------------
1956-10-21 11.0 12.5 8.3 7.4 87.0- 8.0 4.0---- 0.0------------
1956-10-20 8.2 9.9 6.1 5.0 87.5- 7.3 4.3---- 0.0------------
1956-10-19 9.3 11.6 7.7 7.8 95.0- 7.3 5.3---- 1.6------------
1956-10-18 7.2 8.8 3.1 -0.9 88.8- 7.7 3.0---- 0.7------------
1956-10-17 4.2 11.1 -0.6 -4.8 85.5- 3.0 0.7---- 0.0------------
1956-10-16 3.4 8.7 0.9 0.1 85.0- 4.3 2.0---- 0.0------------
1956-10-15 5.6 8.7 4.7 2.4 81.5- 3.0 6.3---- 0.5------------
1956-10-14 5.9 9.1 3.7 0.9 79.3- 3.0 7.3---- 0.5------------
1956-10-13 7.8 10.0 6.4 6.5 82.5- 7.0 9.7---- 17.7------------
1956-10-12 9.5 11.8 8.5 7.4 80.8- 7.7 7.3---- 0.5------------
1956-10-11 8.0 9.3 4.6 3.4 92.8- 8.0 4.0---- 1.3------------
1956-10-10 4.2 7.7 -0.3 -2.4 79.5- 4.0 3.3---- 0.3------------
1956-10-09 4.2 8.0 2.7 0.5 83.8- 4.7 7.7---- 0.7------------
1956-10-08 3.5 7.6 2.4 -0.2 90.3- 4.0 3.7---- 1.4------------
1956-10-07 5.6 8.3 4.9 4.9 89.8- 6.7 9.3---- 8.2------------
1956-10-06 7.4 8.6 5.2 0.9 97.8- 8.0 3.0---- 64.2------------
1956-10-05 9.0 12.0 7.3 6.5 91.8- 5.3 3.3---- 3.6------------
1956-10-04 8.8 11.7 5.9 4.3 91.3- 7.0 2.3---- 0.0------------
1956-10-03 13.1 17.1 10.6 7.7 84.5- 6.0 6.3---- 3.3------------
1956-10-02 15.7 22.1 9.3 7.4 82.8- 3.0 4.3---- 0.9------------
1956-10-01 12.9 18.0 3.7 -0.1 84.3- 2.0 3.7---- 4.2------------
1956-09-30 11.8 17.2 9.3 7.1 77.3- 2.3 5.3---- 0.0------------
1956-09-29 14.4 18.2 12.2 11.5 74.3- 4.0 8.0---- 0.0------------
1956-09-28 13.5 19.1 7.3 2.5 86.5- 3.7 3.3---- 0.8------------
1956-09-27 11.7 20.6 2.6 -2.1 78.0- 1.3 1.0---- 0.0------------
1956-09-26 10.0 20.4 -0.5 -4.4 85.5- 0.0 1.3---- 0.0------------
1956-09-25 7.3 15.2 -0.3 -4.8 72.8- 3.0 1.3---- 0.0------------
1956-09-24 6.1 14.0 0.2 -5.0 75.5- 1.7 1.3---- 0.0------------
1956-09-23 6.1 12.2 1.9 -2.8 70.0- 1.3 2.7---- 0.0------------
1956-09-22 10.2 15.4 7.2 8.9 74.8- 4.0 2.0---- 0.0------------
1956-09-21 11.4 16.9 3.2 -1.1 78.8- 4.0 1.0---- 0.0------------
1956-09-20 9.2 14.5 2.7 -1.1 81.8- 7.7 1.0---- 0.0------------
1956-09-19 8.4 14.3 4.6 0.3 85.0- 3.0 2.3---- 0.0------------
1956-09-18 7.8 12.7 5.0 3.3 83.3- 3.3 3.3---- 0.0------------
1956-09-17 7.2 11.0 5.3 3.0 84.8- 6.7 5.0---- 0.6------------
1956-09-16 8.7 13.0 5.7 3.1 87.5- 7.0 5.3---- 6.4------------
1956-09-15 9.1 15.2 3.7 -0.5 79.5- 4.3 5.0---- 0.0------------
1956-09-14 7.9 13.7 5.3 4.9 79.8- 2.0 2.0---- 0.0------------
1956-09-13 8.6 13.0 3.9 -0.1 87.5- 5.0 2.3---- 0.8------------
1956-09-12 9.2 12.9 7.0 3.7 92.0- 6.7 4.7---- 14.6------------
1956-09-11 10.8 13.5 9.9 9.2 87.0- 8.0 2.0---- 0.0------------
228.5 ms

 

Źródłem pochodzenia danych jest Instytut Meteorologii i Gospodarki Wodnej – Państwowy Instytut Badawczy. Dane Instytutu Meteorologii i Gospodarki Wodnej – Państwowego Instytutu Badawczego zostały przetworzone.

Dane źródłowe można odnaleźć na stronie https://dane.imgw.pl